Weather History for Rock Hill, SC

Change the Weather History Date:

Saturday, February 16, 2013

  Actual Average Record
Temperature  
Mean Temperature 36 °F -  
Max Temperature 46 °F 57 °F 78 °F (1976)
Min Temperature 26 °F 36 °F 10 °F (1991)
Degree Days  
Heating Degree Days 28    
Moisture  
Dew Point 32 °F    
Average Humidity 88    
Maximum Humidity 100    
Minimum Humidity 62    
Precipitation  
Precipitation 0.29 in - - ()
Sea Level Pressure  
Sea Level Pressure 29.93 in    
Wind  
Wind Speed 6 mph (NNE)    
Max Wind Speed 21 mph    
Max Gust Speed 29 mph    
Visibility 5 miles    
Events Fog , Rain , Snow , Thunderstorm    
Averages and records for this station are not official NWS values.
T = Trace of Precipitation, MM = Missing Value Source: NWS Daily Summary

Daily Weather History Graph

Daily Weather History Graph

Search for Another Location

Airport:

Trip Planner

Search our weather history database for the weather conditions in past years. The results will help you decide how hot, cold, wet, or windy it might be!

Date:

Astronomy

Feb. 16, 2013 Rise Set
Actual Time 7:08 AM EST 6:08 PM EST
Civil Twilight 6:43 AM EST 6:34 PM EST
Nautical Twilight 6:13 AM EST 7:03 PM EST
Astronomical Twilight 5:44 AM EST 7:33 PM EST
Moon 10:37 AM EST (2/16) No Moon Set
Length of Visible Light 11h 51m
Length of Day
10h 59m
Waxing Crescent, 39% of the Moon is Illuminated
Feb 16
Waxing Crescent
Feb 17
First Quarter
Feb 25
Full
Mar 4
Last Quarter
Mar 11
New

Hourly Weather History & Observations

Time (EST) Temp. Windchill Dew Point Humidity Pressure Visibility Wind Dir Wind Speed Gust Speed Precip Events Conditions
12:54 AM 46.9 °F - 35.1 °F 63% 29.96 in 10.0 mi North 9.2 mph - N/A   Overcast
1:54 AM 44.1 °F 39.5 °F 34.0 °F 68% 29.96 in 10.0 mi North 8.1 mph - N/A   Partly Cloudy
2:54 AM 45.0 °F 41.8 °F 34.0 °F 65% 29.94 in 10.0 mi NNE 5.8 mph - N/A   Overcast
3:54 AM 44.1 °F 38.6 °F 33.1 °F 65% 29.94 in 10.0 mi NNE 10.4 mph - N/A   Overcast
4:54 AM 43.0 °F 40.3 °F 30.9 °F 62% 29.96 in 10.0 mi NE 4.6 mph - N/A   Overcast
5:24 AM 39.0 °F 34.0 °F 32.0 °F 76% 29.95 in 7.0 mi Variable 6.9 mph - 0.01 in Rain Light Rain
6:37 AM 36.0 °F 32.1 °F 34.0 °F 93% 29.96 in 9.0 mi Variable 4.6 mph - 0.02 in Rain Light Rain
6:54 AM 36.0 °F 33.3 °F 34.0 °F 93% 29.97 in 7.0 mi Variable 3.5 mph - 0.02 in Rain Light Rain
7:22 AM 36.0 °F 33.3 °F 35.1 °F 97% 29.96 in 6.0 mi Variable 3.5 mph - 0.00 in Rain Light Rain
7:41 AM 36.0 °F 33.3 °F 34.0 °F 93% 29.97 in 3.0 mi East 3.5 mph - 0.02 in Rain Light Rain
7:54 AM 36.0 °F 33.3 °F 34.0 °F 93% 29.97 in 3.0 mi Variable 3.5 mph - 0.03 in Rain Light Rain
8:54 AM 35.1 °F 29.3 °F 33.1 °F 92% 29.99 in 1.8 mi NNE 6.9 mph - 0.03 in Rain Light Rain
9:14 AM 34.0 °F - 33.1 °F 96% 29.96 in 1.2 mi Calm Calm - 0.03 in Snow Light Snow
9:32 AM 35.1 °F - 34.0 °F 96% 29.96 in 1.5 mi Calm Calm - 0.05 in Snow Light Snow
9:41 AM 35.1 °F 31.0 °F 34.0 °F 96% 29.96 in 2.0 mi Variable 4.6 mph - 0.05 in Snow Light Snow
9:51 AM 35.6 °F 32.8 °F 33.8 °F 93% 29.96 in 3.0 mi NE 3.5 mph - 0.05 in Rain Light Rain
9:54 AM 35.1 °F - 34.0 °F 96% 29.98 in 3.0 mi Calm Calm - 0.05 in Rain Light Rain
10:08 AM 35.1 °F 31.0 °F 34.0 °F 96% 29.96 in 3.0 mi Variable 4.6 mph - 0.01 in Rain Light Rain
10:16 AM 35.1 °F - 34.0 °F 96% 29.96 in 2.0 mi Calm Calm - 0.01 in Snow Light Snow
10:26 AM 35.1 °F 32.2 °F 34.0 °F 96% 29.95 in 1.8 mi Variable 3.5 mph - 0.02 in Snow Light Snow
10:33 AM 35.1 °F 30.1 °F 34.0 °F 96% 29.95 in 2.0 mi ENE 5.8 mph - 0.02 in Snow Light Snow
10:49 AM 35.6 °F 31.7 °F 33.8 °F 93% 29.94 in 3.0 mi NE 4.6 mph - 0.02 in   Overcast
10:50 AM 36.0 °F 32.1 °F 35.1 °F 97% 29.96 in 3.0 mi NE 4.6 mph - 0.02 in   Overcast
11:04 AM 35.1 °F 31.0 °F 34.0 °F 96% 29.96 in 4.0 mi ENE 4.6 mph - 0.00 in   Overcast
11:33 AM 36.0 °F - 35.1 °F 97% 29.94 in 6.0 mi Calm Calm - 0.00 in   Overcast
11:54 AM 36.0 °F 32.1 °F 34.0 °F 93% 29.94 in 5.0 mi ESE 4.6 mph - 0.00 in   Overcast
12:16 PM 37.0 °F 34.5 °F 34.0 °F 89% 29.92 in 6.0 mi SE 3.5 mph - 0.00 in   Overcast
12:23 PM 36.0 °F - 34.0 °F 93% 29.92 in 6.0 mi Calm Calm - 0.00 in   Overcast
12:31 PM 37.0 °F 34.5 °F 35.1 °F 93% 29.91 in 6.0 mi East 3.5 mph - 0.00 in   Overcast
12:54 PM 37.0 °F 34.5 °F 34.0 °F 89% 29.92 in 7.0 mi NNE 3.5 mph - 0.00 in   Overcast
1:16 PM 37.0 °F 34.5 °F 33.1 °F 86% 29.89 in 9.0 mi Variable 3.5 mph - 0.00 in   Overcast
1:54 PM 37.9 °F - 34.0 °F 86% 29.88 in 9.0 mi Calm Calm - 0.00 in   Overcast
2:54 PM 39.9 °F - 32.0 °F 73% 29.86 in 10.0 mi Calm Calm - N/A   Mostly Cloudy
3:03 PM 39.0 °F 36.8 °F 30.0 °F 70% 29.84 in 10.0 mi ENE 3.5 mph - N/A   Mostly Cloudy
3:15 PM 39.9 °F - 30.9 °F 70% 29.84 in 10.0 mi Calm Calm - N/A   Overcast
3:46 PM 39.9 °F 36.7 °F 30.9 °F 70% 29.83 in 10.0 mi Variable 4.6 mph - N/A   Mostly Cloudy
3:54 PM 39.9 °F - 30.9 °F 70% 29.85 in 10.0 mi Calm Calm - N/A   Mostly Cloudy
4:35 PM 39.0 °F 34.0 °F 30.0 °F 70% 29.84 in 8.0 mi North 6.9 mph - 0.00 in Rain , Thunderstorm Light Thunderstorms and Rain
4:43 PM 35.1 °F 23.8 °F 30.0 °F 82% 29.86 in 0.5 mi North 20.7 mph 28.8 mph 0.01 in Snow , Thunderstorm Thunderstorms and Snow
4:50 PM 32.0 °F 22.5 °F 30.2 °F 93% 29.86 in 0.2 mi North 12.7 mph 26.5 mph 0.02 in Fog , Thunderstorm Fog
4:54 PM 32.0 °F 22.1 °F 30.9 °F 96% 29.88 in 0.2 mi North 13.8 mph 26.5 mph 0.02 in Fog , Snow , Thunderstorm Heavy Snow
5:02 PM 32.0 °F 23.0 °F 32.0 °F 100% 29.86 in 0.2 mi North 11.5 mph 24.2 mph 0.01 in Fog , Snow Heavy Snow
5:40 PM 32.0 °F 24.2 °F 32.0 °F 100% 29.88 in 0.5 mi NNW 9.2 mph - 0.04 in Fog , Snow Snow
5:54 PM 32.0 °F 24.2 °F 32.0 °F 100% 29.92 in 0.2 mi NNW 9.2 mph - 0.05 in Fog , Snow Snow
6:00 PM 32.0 °F 25.6 °F 32.0 °F 100% 29.89 in 0.2 mi NNW 6.9 mph - 0.00 in Fog , Snow Heavy Snow
6:16 PM 32.0 °F 23.6 °F 32.0 °F 100% 29.91 in 0.8 mi NNW 10.4 mph - 0.02 in Snow Light Snow
6:24 PM 32.0 °F 22.1 °F 30.9 °F 96% 29.91 in 0.2 mi NNW 13.8 mph 21.9 mph 0.03 in Fog , Snow Heavy Snow
6:54 PM 32.0 °F 21.6 °F 30.9 °F 96% 29.96 in 0.5 mi North 15.0 mph - 0.06 in Fog , Snow Snow
6:59 PM 32.0 °F 22.5 °F 30.9 °F 96% 29.93 in 1.0 mi North 12.7 mph - 0.01 in Snow Light Snow
7:14 PM 32.0 °F 23.0 °F 30.0 °F 92% 29.94 in 1.5 mi North 11.5 mph - 0.01 in Snow Light Snow
7:31 PM 32.0 °F 24.8 °F 30.0 °F 92% 29.94 in 3.0 mi North 8.1 mph - 0.01 in Snow Light Snow
7:46 PM 30.9 °F 26.2 °F 30.0 °F 96% 29.94 in 10.0 mi North 4.6 mph - 0.01 in   Overcast
7:54 PM 30.9 °F 26.2 °F 28.9 °F 92% 29.97 in 10.0 mi NNE 4.6 mph - 0.01 in   Overcast
8:54 PM 30.0 °F 25.2 °F 28.0 °F 92% 29.99 in 10.0 mi West 4.6 mph - N/A   Mostly Cloudy
9:54 PM 28.9 °F 22.8 °F 24.1 °F 82% 30.01 in 10.0 mi WNW 5.8 mph - N/A   Clear
10:54 PM 27.0 °F 19.5 °F 21.0 °F 78% 30.03 in 10.0 mi West 6.9 mph - N/A   Clear
11:54 PM 26.1 °F 19.4 °F 21.0 °F 81% 30.04 in 10.0 mi NW 5.8 mph - N/A   Clear